Location: 3 Angels Observatory
(30.5437°N, 88.5068°W)
Time: 14:17:54
(UTC-05:00)

Daily predictions for brighter satellites

Satellite Brightness Start Highest point End
(mag) Time Altitude Azimuth Time Altitude Azimuth Time Altitude Azimuth
Milstar 3 Cent rocket 3.0 20:13:46 10° W 20:19:14 68° S 20:29:27 10° ESE
NOSS 3-4 (A) 4.1 20:13:50 10° NNW 20:20:56 60° ENE 20:28:26 10° SE
NOSS 3-4 (C) 4.1 20:13:56 10° NNW 20:21:02 59° ENE 20:28:31 10° SE
Resurs 01 Rocket 1.7 20:19:31 10° SSE 20:23:52 66° ENE 20:28:13 10° N
CZ-2D R/B 3.3 20:20:45 10° SSE 20:24:32 66° ENE 20:28:21 10° N
Meteor 1-16 Rocket 4.4 20:18:40 10° N 20:24:35 85° E 20:30:31 10° S
Resurs 1-3 3.7 20:20:41 10° SSE 20:25:00 60° ENE 20:29:18 10° N
SL-16 R/B 3.1 20:20:57 10° N 20:26:03 34° ENE 20:31:07 10° SE
Cosmos 1939 Rocket 4.4 20:23:16 10° ESE 20:26:17 21° ENE 20:29:22 10° NNE
SEDSat Delta rocket 4.3 20:22:34 10° W 20:26:55 31° SSW 20:30:50 10° SE
GEOS 3 Rocket 3.8 20:24:53 10° SSE 20:29:57 76° WSW 20:35:08 10° NW
Meteor 1-24 Rocket 4.0 20:26:18 10° S 20:32:14 84° W 20:38:01 10° N
Cosmos 1741 Rocket 4.0 20:27:30 10° S 20:32:47 75° ESE 20:38:05 10° NNE
CZ-3B R/B 2.8 20:30:45 10° SSW 20:32:47 50° ESE 20:37:08 10° NE
Spot 2 Rocket 3.5 20:29:25 10° SSE 20:34:27 77° ENE 20:39:31 10° N
Cosmos 2219 Rocket 3.6 20:30:01 10° NW 20:35:10 37° WSW 20:40:17 10° S
Cosmos 1934 Rocket 4.2 20:30:10 10° N 20:36:16 76° W 20:42:18 10° S
USA 186 1.0 20:34:28 10° SSE 20:36:44 53° ENE 20:38:55 10° N
Cosmos 1842 Rocket 3.5 20:32:49 10° N 20:37:11 74° E 20:41:29 10° S
Cosmos 1076 Rocket 4.4 20:35:51 10° SSE 20:39:41 31° E 20:43:31 10° NNE
GPS 2-05 Rocket1 2.6 20:37:15 10° WSW 20:40:20 76° NNW 20:43:25 10° ENE
Lacrosse 5 3.9 20:44:33 10° N 20:47:38 16° NE 20:50:42 10° ENE
Cosmos 1818 4.0 20:43:57 10° NNW 20:49:10 46° ENE 20:53:39 14° SE
Atlas Centaur 2 1.3 20:47:37 10° W 20:51:31 55° SSW 20:54:14 16° ESE
Cosmos 2333 Rocket 3.9 20:48:35 10° NW 20:53:29 31° WSW 20:58:22 10° SSW
YAOGAN 6 3.7 20:52:07 15° SE 20:54:27 27° ENE 20:57:36 10° NNE
Cosmos 1605 Rocket 4.2 20:48:14 10° N 20:54:33 81° W 21:00:55 10° S
Cosmos 2227 4.2 20:52:36 10° S 20:58:16 65° ESE 21:03:55 10° NNE
Envisat 3.0 20:54:11 10° SSE 20:59:14 80° ENE 21:04:20 10° N
Cosmos 2221 2.7 20:57:35 10° N 21:01:54 54° E 21:05:26 15° SSE
Meteor 1-29 2.8 21:05:29 10° NNE 21:08:57 80° ESE 21:12:24 10° S
Cosmos 1726 3.9 21:08:09 10° NE 21:10:24 15° ENE 21:10:47 15° E
Cosmos 2263 Rocket 3.1 21:11:05 19° SE 21:13:41 26° ESE 21:18:14 10° NE
H-2A R/B 4.4 20:56:10 10° WNW 21:13:59 22° WSW 21:19:01 10° S
Abrixas 3.8 21:15:49 10° WSW 21:18:20 36° NW 21:20:53 10° NNE
Cosmos 1802 Rocket 4.3 21:13:03 10° N 21:18:56 48° E 21:22:46 21° SE
Cosmos 2208 Rocket 4.0 21:16:25 10° NNW 21:21:48 77° ENE 21:25:25 21° SSE
Helios 1B rocket 3.3 21:18:19 10° N 21:22:20 52° WNW 21:26:20 10° SSW
Cosmos 1300 4.3 21:23:26 10° NNE 21:26:16 19° ENE 21:26:18 19° E
Spot 1 4.0 21:25:22 20° S 21:28:06 77° W 21:32:17 10° NNW
SAR-Lupe-4 3.5 21:28:13 30° SSE 21:29:53 88° W 21:33:29 10° NNW
Cosmos 1570 Rocket 4.1 21:25:37 10° NNW 21:30:54 77° WSW 21:34:26 21° S
Cosmos 1766 Rocket 3.4 21:27:53 14° S 21:31:33 89° ENE 21:35:54 10° N
Star 37E S/N 40062 4.2 21:29:26 10° SW 21:38:49 - E 21:31:27 34° SSE
Helios 1A 3.6 21:31:12 16° S 21:34:18 52° W 21:38:20 10° NNW
SL-14 R/B 3.6 21:36:06 41° SE 21:36:47 46° E 21:40:34 10° NNE
USA 234 3.2 21:31:45 10° NE 21:38:13 63° SE 21:44:40 10° SSW
Cosmos 1328 Rocket 4.4 21:35:54 10° NNE 21:39:45 31° E 21:40:05 30° E
CZ-4B DEB 3.5 21:38:54 32° SSW 21:39:50 45° W 21:42:42 10° NNW
Cosmos 2016 Rocket 4.0 21:33:51 10° N 21:40:00 60° E 21:43:04 30° SSE
MetOp-A 4.3 21:39:46 32° SE 21:42:02 56° ENE 21:47:16 10° N
Cosmos 1674 4.5 21:39:43 10° SW 21:43:04 30° W 21:46:26 10° NNW
ERS-1 Rocket 2.9 21:41:51 33° SSE 21:44:09 76° ENE 21:49:12 10° N
Cosmos 1242 Rocket 3.1 21:41:10 10° NNW 21:44:48 55° W 21:46:19 31° SSW
Palapa 6 Rocket 4.5 21:41:33 10° WSW 21:46:05 25° SSW 21:46:35 25° S
Cosmos 1743 Rocket 3.6 21:46:32 47° SE 21:47:19 55° E 21:51:33 10° NNE
ARGOS 3.5 21:46:39 35° ESE 21:48:27 49° ENE 21:53:39 10° N
USA 245 4.0 21:48:40 34° ENE 21:48:40 34° ENE 21:52:13 10° N
Cosmos 468 Rocket 4.0 21:44:02 10° N 21:49:07 64° ENE 21:50:42 42° SE
Cosmos 2058 4.2 21:50:47 26° ENE 21:50:47 26° ENE 21:53:32 10° NNE
Cosmos 1328 3.7 21:49:32 54° SSE 21:50:17 70° E 21:54:18 10° N
Sakura Rocket 4.2 21:43:59 10° W 21:52:54 76° S 21:56:13 33° ESE
Cosmos 1603 3.7 21:48:12 10° NNW 21:53:49 68° ENE 21:55:39 42° SE
RESURS DK-1 2.3 21:50:01 10° NNW 21:54:09 64° ENE 21:54:38 58° ESE
YAOGAN 11 4.4 21:55:56 47° ESE 21:56:32 51° ENE 22:00:56 10° N
Cosmos 1503 Rocket 4.2 22:00:28 45° ESE 22:00:34 45° ESE 22:05:29 10° NNE
Meteor 2-2 Rocket 4.2 22:00:22 10° N 22:06:13 79° E 22:08:08 45° SSE
Nimbus 7 Rocket 4.3 22:00:36 10° NNE 22:06:35 71° ESE 22:08:52 39° S
Cosmos 1943 3.8 22:01:25 10° N 22:06:44 40° ENE 22:07:41 37° E
Cosmos 371 Rocket 3.3 22:02:07 10° N 22:06:53 62° ENE 22:07:23 58° ESE
Cosmos 2228 Rocket 3.1 22:02:29 10° N 22:07:02 63° E 22:07:15 62° E
SL-16 R/B 4.0 22:05:25 10° NW 22:09:55 25° WSW 22:13:40 13° SSW
H-2A R/B 2.1 22:17:24 57° ESE 22:18:02 61° ENE 22:23:22 10° N
GPS 2-05 Rocket1 4.5 22:15:28 10° WNW 22:17:47 29° NNW 22:17:47 29° NNW
ERBS 3.9 22:16:17 10° NNW 22:18:29 32° N 22:18:29 32° N
Cosmos 1447 Rocket 4.4 22:18:48 50° SSE 22:20:26 71° E 22:26:46 10° N
SPOT 5 2.8 22:24:13 67° SSW 22:24:46 77° WSW 22:29:50 10° NNW
SL-08 RB Rocket 3.6 22:25:51 81° WSW 22:25:56 81° WSW 22:30:33 10° NNW
H-2A ROCKET BODY 2.3 22:22:55 10° WSW 22:26:27 66° SSE 22:40:33 10° E
Cosmos 2151 3.1 22:27:50 72° NW 22:27:50 72° NW 22:31:50 10° N
Lacrosse 5 1.8 22:26:01 10° NW 22:31:03 75° SW 22:31:05 75° SW
Landsat 7 4.1 22:35:07 56° NE 22:35:07 56° NE 22:39:16 10° N
Meteor 2-10 4.5 22:29:44 10° NNW 22:35:22 65° W 22:36:32 52° SSW
Cosmos 1626 3.7 22:38:04 33° N 22:38:04 33° N 22:40:13 10° N
Cosmos 1703 4.4 22:39:14 41° N 22:39:14 41° N 22:41:54 10° N
SL-19 R/B 4.4 22:39:51 10° NNE 22:44:40 60° ENE 22:44:40 60° ENE
Cosmos 1726 4.4 22:42:52 10° NW 22:45:24 20° W 22:45:24 20° W
Cosmos 1354 Rocket 4.4 22:45:33 51° WSW 22:46:28 59° WNW 22:51:38 10° N
Terra 2.5 22:50:32 48° NNE 22:50:32 48° NNE 22:54:11 10° N
Cosmos 1763 Rocket 4.1 22:51:55 10° NNW 22:56:30 48° W 22:56:30 48° W
Cosmos 841 Rocket 3.8 22:51:58 10° NNW 22:56:41 63° WNW 22:56:41 63° WNW
Cosmos 2263 Rocket 3.8 22:52:37 10° SW 22:57:23 31° WNW 23:02:19 10° N
Cosmos 2285 Rocket 4.1 22:51:26 10° N 22:57:44 63° ENE 22:57:44 63° ENE
Milstar 3 Cent rocket 4.4 22:50:43 10° W 22:58:50 41° SSW 23:00:26 40° S
H-2A R/B 3.8 23:24:41 30° NNW 23:24:41 30° NNW 23:26:53 10° NNW
Cosmos 1464 Rocket 4.1 23:18:56 10° N 23:24:20 68° NNE 23:24:20 68° NNE
Cosmos 1844 Rocket 3.5 23:31:43 44° NNE 23:31:43 44° NNE 23:35:28 10° NNE
CZ-4C R/B 2.9 23:31:21 46° NW 23:31:21 46° NW 23:36:24 10° NNE
